Regional Weather Roundup
Issued by NWS Binghamton, NY

Home | Current Version | Previous Version | Text Only | Print | Product List | Glossary On
Versions: 1 2 3 4 5 6 7 8 9 10 11 12 13 14 15 16 17 18 19 20 21 22 23 24 25 26 27
000
ASUS41 KBGM 200910
RWRBGM

REGIONAL WEATHER ROUNDUP
NATIONAL WEATHER SERVICE BINGHAMTON NY
500 AM EDT FRI APR 20 2018

Note: "fair" indicates few or no clouds below 12,000 feet with no
significant weather and/or obstructions to visibility.

* = Station(s) that does not report precipitation, such as rain,
snow, etc, also no thunder or fog.

NYZ009-015>018-022>025-036-037-044>046-055>057-062-201000
...Central New York...

CITY           SKY/WX    TMP DP  RH WIND       PRES   REMARKS
Binghamton     CLOUDY    27  21  78 NW13G18   30.07R WCI  16
Cortland       CLOUDY    30  23  74 W3        30.12R
Dansville      CLOUDY    32  20  61 NW13      30.20R WCI  22
Elmira         CLOUDY    33  21  61 NW8       30.16R WCI  26
Ithaca         MOCLDY    29  22  75 NW13G20   30.14R WCI  19
Monticello       N/A     29  21  72 MISG        N/A
Penn Yan       MOCLDY    29  18  63 NW12G20   30.17R WCI  19
Rome           CLOUDY    31  24  75 NW13G21   30.13R WCI  21
Sidney         LGT SNOW  28  25  86 W5        30.10R WCI  23
Syracuse       FLURRIES  31  25  78 NW12      30.15R WCI  22
$$

PAZ038>040-043-044-047-048-072-201000
...Northeast Pennsylvania...

CITY           SKY/WX    TMP DP  RH WIND       PRES   REMARKS
Hazleton       CLOUDY    30  21  69 NW9G17    30.11R WCI  22
Scranton       LGT SNOW  31  25  78 NW12G22   30.11R WCI  22
$$
&&
KEY
WCI = Wind Chill Index
VSB = Visibility
HX  = Heat Index
$$




USA.gov is the U.S. government's official web portal to all federal, state and local government web resources and services.